Location: Powder Track
(41.8531°N, 72.3584°W)
Time: 08:15:31
(UTC+00:00)

Altair - Pass Details

Date: 05 August 2021
Orbit: 1501 x 1682 km, 47.2° (Epoch: 19 September)

Event Time Altitude Azimuth Distance (km) Brightness Sun altitude
Exits shadow 04:19:14 40° 111° (ESE) 2,153 7.9 -30.6°
Drops below altitude 10° 04:26:03 10° 70° (ENE) 3,695 9.6 -30.8°
Sets 04:29:13 0° 64° (ENE) 4,663 10.3 -30.9°
